Wind_Speed
5 6 6 6 7 6 6 6 6 6 5 5 5 5 5 5 6 5 4 3 3 3 2 2 2 2 1 1 1 2 2 3 3 4 5 6 7 8 8 9 9 10 11
4 5 5 5 6 6 5 5 5 5 5 5 5 5 5 5 4 3 3 2 2 2 2 2 2 1 0 1 2 3 3 4 5 5 6 7 8 9 9 10 10 11 11
4 3 4 4 4 4 4 4 4 4 5 5 5 5 4 3 3 2 2 2 1 1 2 3 2 0 1 2 3 4 5 5 6 6 7 8 9 10 11 11 11 11 12
3 2 2 2 3 3 3 3 3 4 4 4 5 4 4 3 3 2 2 2 1 1 1 1 0 1 2 3 4 5 6 6 7 8 8 10 11 11 12 12 12 12 12
1 1 1 0 1 1 2 2 3 3 3 3 3 3 3 3 2 2 1 1 0 0 0 1 1 2 2 3 5 6 7 8 9 9 10 11 12 12 12 12 12 12 13
2 1 1 1 1 0 1 1 1 2 2 2 2 2 2 2 2 2 2 2 1 1 1 1 2 3 4 5 6 7 8 9 10 11 11 12 13 13 13 13 13 13 14
3 2 2 3 3 2 2 2 2 1 1 0 0 1 2 2 2 2 2 2 2 2 2 3 3 4 5 7 8 9 10 11 12 12 13 13 13 14 14 14 14 14 15
5 4 4 4 4 4 3 4 4 4 3 3 3 3 3 3 4 4 4 3 3 3 4 4 5 6 7 8 9 10 11 12 13 14 15 15 15 15 15 15 15 15 16
8 7 6 6 6 6 6 6 6 6 5 5 5 5 5 5 5 5 5 5 5 5 5 6 6 7 8 9 10 12 13 14 15 16 17 17 17 17 16 15 16 17 17
10 9 9 8 8 8 8 8 8 7 7 7 6 6 6 6 6 6 6 6 6 7 7 7 8 9 10 11 12 14 15 15 16 17 18 18 18 18 17 17 17 18 18
12 11 11 11 11 10 10 10 10 9 9 9 8 8 8 8 8 8 8 8 8 9 9 10 10 11 13 14 15 16 17 18 18 18 18 19 18 19 19 19 20 20 20
14 13 13 12 12 12 12 12 12 12 11 11 11 10 10 10 11 11 10 10 11 11 11 12 13 14 15 15 16 17 18 19 19 20 20 19 19 20 20 21 21 21 22
16 16 16 15 15 15 15 14 14 14 14 13 13 13 13 13 13 13 13 13 13 13 14 15 16 16 16 17 18 19 19 20 20 20 20 20 20 21 22 22 22 23 23
18 18 18 18 18 18 17 17 16 16 16 15 15 15 15 15 15 15 15 15 16 17 17 17 17 17 18 18 19 20 20 20 20 20 21 22 23 24 24 24 24 24 24
20 19 20 20 19 19 19 19 18 18 18 17 17 17 17 17 17 17 17 17 18 18 18 18 18 19 19 20 21 21 21 22 22 23 23 24 24 24 25 24 24 25 26
21 21 21 21 21 21 21 20 20 20 20 20 20 20 20 19 19 18 18 18 19 18 18 19 20 20 21 22 23 23 24 24 24 24 25 25 25 25 25 26 26 26 27
22 22 23 23 22 22 22 23 22 22 22 21 21 21 21 20 20 20 19 20 21 21 20 20 21 21 22 24 25 25 25 26 26 26 26 27 27 26 27 27 28 28 28
25 24 23 23 22 22 22 23 23 23 22 22 22 22 22 22 23 23 23 23 23 22 22 22 22 23 25 26 27 27 27 27 28 28 28 28 28 27 27 28 28 29 29
27 26 25 25 25 25 25 25 26 25 24 24 24 24 24 26 25 25 25 25 25 25 25 26 26 27 27 28 28 29 28 29 29 29 29 30 30 30 30 30 30 30 30
29 29 28 28 28 28 28 28 28 28 28 27 27 27 28 29 28 28 28 29 29 28 28 29 29 29 29 30 31 31 31 31 31 31 31 31 31 31 31 31 30 30 30
32 31 30 31 31 30 31 31 31 31 31 31 31 31 32 32 32 32 32 32 32 32 31 31 31 31 32 33 33 32 32 32 32 32 32 32 33 32 32 31 31 31 31
33 33 32 33 33 33 33 33 33 33 33 33 33 34 34 34 34 34 35 35 35 34 34 33 33 33 33 33 34 33 33 33 33 33 33 32 32 32 32 32 32 32 32
34 34 34 34 34 35 34 35 35 35 35 36 36 37 37 37 37 37 37 38 37 37 36 35 34 34 33 33 33 34 34 33 34 34 33 33 32 32 32 32 32 33 33
36 36 36 35 35 36 36 36 36 37 37 38 38 38 38 39 39 40 40 39 39 38 37 36 36 35 34 34 34 34 35 34 34 34 33 33 32 33 33 33 33 33 33
36 36 37 36 37 38 38 37 37 37 38 38 39 38 38 39 40 40 40 40 39 38 37 37 37 37 37 37 37 36 37 35 34 34 34 33 33 33 33 33 33 33 33
38 38 38 38 38 39 38 38 38 38 39 39 39 39 39 39 39 39 39 39 39 39 39 39 39 39 38 38 38 38 37 36 36 35 35 35 34 34 34 34 34 34 34
Wind_Direction
67 74 85 89 91 93 99 110 115 118 118 120 125 126 128 134 135 135 138 144 155 165 168 152 146 143 127 27 347 339 329 322 321 319 319 320 316 314 314 312 311 311 310
61 69 80 92 95 94 98 107 111 114 112 111 121 124 125 130 122 126 128 146 160 181 189 172 174 179 166 5 355 340 328 321 316 314 315 317 314 311 313 313 311 310 309
63 64 82 96 100 101 104 111 113 109 110 108 110 124 121 121 123 114 114 139 152 165 185 178 164 90 19 346 336 332 326 320 317 317 318 315 314 315 314 314 311 309 309
67 58 70 85 101 109 110 114 117 117 115 111 108 94 92 99 102 93 105 127 115 120 181 166 262 316 324 330 331 328 326 322 317 316 314 313 311 312 314 312 311 310 312
1 32 44 59 89 99 102 118 123 117 117 110 98 85 79 76 67 59 68 74 356 18 163 88 353 322 327 338 338 334 328 322 317 315 315 315 311 312 312 313 313 312 311
282 301 311 286 262 242 141 155 138 113 101 94 82 61 42 28 27 38 33 14 356 351 337 356 347 334 328 325 322 322 324 324 322 320 316 316 314 312 312 313 313 312 312
257 272 272 282 277 261 245 234 224 215 220 211 11 355 354 347 343 349 356 351 342 337 339 339 336 332 328 323 318 318 322 323 322 321 320 320 319 314 311 310 311 310 310
249 261 271 274 271 257 255 247 243 243 247 254 269 290 303 312 317 318 319 314 322 325 323 321 322 321 320 320 319 318 318 321 321 320 317 317 317 314 310 308 308 308 308
254 260 267 269 264 256 255 255 252 250 255 262 274 282 292 298 303 307 302 299 300 306 310 311 315 316 317 321 321 321 321 321 321 319 317 316 314 314 309 308 307 305 305
252 258 261 261 260 258 256 254 256 257 259 262 273 283 288 292 295 298 294 289 291 294 296 302 307 311 314 315 315 316 317 318 316 315 314 314 313 313 312 310 307 307 305
254 256 258 259 259 258 255 253 255 256 258 260 267 275 281 288 291 288 285 283 285 288 291 296 301 304 307 309 311 312 312 312 313 314 311 310 311 311 310 309 309 308 306
255 255 256 259 258 255 254 255 257 257 260 261 264 270 276 283 289 287 282 282 284 286 289 294 298 300 301 304 305 308 310 309 309 310 311 309 311 312 311 309 307 306 306
254 255 256 257 255 254 256 258 258 259 261 262 263 267 275 280 285 285 284 282 286 287 288 290 293 295 297 300 304 307 309 308 308 307 309 309 309 310 309 306 305 304 305
256 256 256 257 255 255 256 258 258 260 262 263 264 268 275 280 281 282 283 282 286 287 286 287 288 292 294 297 301 303 304 306 307 306 305 306 306 307 308 306 304 303 303
253 255 256 256 255 257 258 258 256 258 262 263 264 268 273 277 279 280 280 282 286 286 285 286 287 291 294 295 299 302 302 303 303 302 303 303 303 304 305 305 304 303 302
253 253 253 253 254 256 256 255 254 257 260 262 266 267 270 275 280 278 277 280 282 283 284 284 289 291 292 296 298 300 300 300 300 300 301 302 301 301 302 302 302 301 300
255 253 252 253 254 255 253 253 254 258 261 263 266 270 270 273 277 275 276 277 280 281 284 284 288 292 293 294 296 297 298 298 298 297 298 299 299 299 300 300 300 298 297
253 253 253 254 255 256 257 256 259 261 264 266 268 270 269 271 275 274 275 277 279 280 281 283 286 290 292 292 293 294 295 296 296 296 296 297 298 298 299 299 298 297 295
249 251 252 253 256 258 259 260 261 262 264 266 269 271 272 272 273 275 275 275 276 278 282 284 287 289 290 290 291 293 294 296 296 295 297 298 298 297 298 298 298 297 294
247 248 250 252 255 257 260 261 262 262 264 266 268 270 272 272 273 276 274 274 275 277 280 283 285 286 287 288 289 291 293 294 295 296 296 296 297 297 297 298 298 297 294
248 248 250 253 255 257 259 260 260 260 263 264 266 270 273 274 276 275 275 275 276 278 280 283 283 284 286 286 287 289 290 292 293 293 294 294 293 295 295 295 296 296 295
248 249 251 253 255 258 259 260 261 262 264 266 268 271 272 273 274 276 276 276 278 279 280 281 283 285 286 286 286 288 290 291 292 293 294 293 293 294 295 295 295 295 295
250 252 253 254 256 258 260 261 262 263 265 266 268 270 272 272 272 274 275 276 276 277 278 279 282 284 285 286 286 286 288 291 292 293 294 293 294 295 295 295 295 295 295
251 253 255 256 257 259 261 261 261 263 265 268 270 271 271 272 272 273 274 274 274 275 276 278 281 283 284 284 285 286 288 288 290 291 292 293 295 295 296 295 295 295 295
253 254 255 256 258 260 260 261 262 264 266 268 270 271 271 271 271 271 273 272 272 272 274 277 280 281 282 284 286 287 288 288 288 289 290 292 294 295 295 295 295 295 295
253 254 256 258 259 259 259 261 263 264 266 268 269 270 272 273 272 272 273 273 272 273 274 276 278 280 282 283 285 286 287 287 287 288 289 290 292 294 294 295 295 295 294
Height
5903 5902 5901 5900 5900 5900 5899 5899 5899 5899 5899 5899 5899 5899 5899 5899 5899 5899 5899 5900 5900 5900 5900 5900 5901 5901 5901 5900 5900 5900 5899 5899 5898 5898 5897 5896 5895 5894 5892 5891 5890 5888 5887
5904 5903 5902 5902 5901 5901 5901 5901 5900 5900 5900 5900 5900 5900 5900 5900 5900 5899 5899 5899 5899 5899 5900 5900 5900 5901 5901 5900 5900 5899 5899 5898 5897 5897 5896 5895 5894 5892 5891 5890 5888 5887 5885
5905 5905 5904 5903 5903 5902 5902 5902 5902 5901 5901 5901 5901 5901 5901 5900 5900 5900 5899 5899 5899 5900 5900 5900 5900 5900 5900 5900 5900 5899 5898 5898 5897 5896 5895 5894 5892 5891 5890 5888 5886 5884 5883
5906 5906 5905 5904 5904 5903 5903 5903 5903 5903 5902 5902 5902 5902 5901 5901 5900 5900 5900 5900 5900 5900 5900 5900 5900 5900 5900 5900 5899 5898 5898 5897 5896 5894 5893 5892 5890 5889 5888 5886 5884 5882 5880
5907 5906 5906 5905 5905 5904 5904 5904 5903 5903 5903 5903 5902 5902 5902 5901 5901 5900 5900 5900 5899 5899 5899 5899 5900 5900 5899 5899 5898 5897 5896 5895 5894 5893 5891 5890 5888 5886 5885 5883 5881 5880 5878
5907 5906 5906 5905 5905 5905 5904 5904 5904 5904 5903 5903 5903 5902 5902 5901 5901 5900 5900 5899 5899 5899 5899 5899 5899 5899 5898 5898 5897 5896 5895 5894 5892 5891 5890 5888 5886 5884 5882 5881 5879 5877 5875
5906 5906 5906 5906 5905 5905 5904 5904 5904 5904 5903 5903 5903 5902 5902 5901 5901 5900 5900 5899 5899 5899 5899 5898 5898 5897 5897 5896 5895 5894 5893 5892 5890 5889 5887 5885 5883 5882 5880 5878 5876 5874 5872
5905 5905 5905 5905 5905 5904 5904 5904 5904 5904 5903 5903 5902 5902 5901 5901 5900 5900 5899 5899 5898 5898 5898 5897 5897 5896 5895 5894 5893 5892 5891 5890 5888 5886 5884 5882 5881 5879 5876 5875 5874 5872 5870
5904 5904 5904 5904 5904 5903 5903 5903 5903 5903 5903 5902 5901 5901 5900 5900 5899 5899 5898 5898 5897 5897 5896 5896 5895 5894 5893 5892 5891 5890 5889 5887 5885 5884 5881 5880 5877 5875 5873 5871 5870 5869 5866
5902 5902 5902 5902 5902 5902 5902 5901 5901 5902 5901 5901 5901 5900 5899 5899 5898 5897 5896 5896 5896 5895 5895 5894 5893 5892 5891 5890 5889 5888 5886 5884 5882 5880 5878 5876 5874 5872 5870 5868 5866 5865 5863
5899 5900 5900 5900 5899 5899 5899 5899 5900 5900 5900 5899 5899 5899 5898 5897 5896 5895 5895 5894 5894 5893 5892 5892 5891 5890 5889 5888 5886 5885 5883 5881 5879 5877 5875 5873 5871 5869 5866 5864 5862 5860 5858
5896 5896 5896 5897 5897 5897 5897 5897 5897 5897 5897 5897 5897 5896 5896 5895 5894 5893 5893 5892 5891 5891 5890 5889 5888 5887 5886 5884 5883 5881 5879 5877 5875 5873 5871 5869 5867 5865 5862 5860 5858 5856 5854
5892 5892 5893 5893 5893 5894 5894 5894 5894 5894 5894 5894 5894 5894 5893 5893 5892 5891 5890 5889 5888 5887 5886 5886 5884 5883 5882 5881 5879 5877 5875 5873 5871 5869 5867 5865 5862 5860 5858 5855 5853 5851 5849
5887 5888 5888 5889 5889 5890 5890 5890 5891 5891 5891 5891 5891 5891 5890 5890 5889 5888 5886 5885 5884 5883 5882 5882 5881 5879 5878 5876 5875 5872 5870 5868 5866 5864 5862 5860 5858 5855 5853 5850 5848 5845 5843
5882 5883 5884 5884 5885 5885 5886 5886 5887 5887 5887 5887 5887 5887 5886 5885 5885 5884 5883 5881 5880 5879 5878 5877 5876 5875 5873 5872 5870 5868 5866 5864 5862 5860 5857 5855 5852 5850 5847 5845 5842 5840 5837
5876 5877 5878 5879 5880 5880 5880 5881 5881 5882 5882 5882 5882 5882 5881 5881 5880 5878 5877 5877 5876 5874 5873 5872 5871 5869 5868 5866 5865 5863 5861 5858 5856 5854 5852 5849 5847 5844 5841 5838 5835 5833 5831
5871 5872 5872 5873 5874 5875 5874 5875 5876 5876 5877 5877 5877 5876 5876 5875 5875 5873 5872 5871 5870 5869 5868 5866 5865 5864 5862 5861 5859 5857 5855 5853 5850 5848 5845 5843 5840 5838 5835 5832 5829 5826 5823
5864 5865 5866 5867 5868 5869 5869 5870 5870 5870 5871 5871 5871 5870 5870 5869 5869 5867 5866 5866 5864 5863 5862 5860 5859 5857 5856 5854 5852 5850 5848 5846 5843 5841 5838 5836 5833 5830 5828 5825 5822 5819 5816
5857 5858 5859 5861 5862 5862 5863 5863 5864 5864 5864 5865 5865 5864 5864 5863 5862 5861 5860 5859 5858 5856 5855 5854 5852 5850 5849 5847 5845 5842 5840 5838 5836 5833 5831 5828 5826 5823 5820 5817 5814 5811 5808
5849 5851 5852 5853 5854 5855 5856 5856 5857 5857 5857 5858 5858 5857 5857 5855 5854 5854 5852 5851 5850 5848 5847 5846 5844 5843 5840 5839 5837 5835 5833 5830 5828 5825 5822 5820 5817 5814 5811 5809 5806 5802 5799
5840 5842 5844 5845 5846 5847 5848 5848 5849 5849 5849 5850 5849 5849 5848 5847 5846 5845 5844 5843 5842 5840 5839 5837 5836 5834 5832 5830 5829 5827 5824 5822 5819 5817 5814 5811 5809 5806 5803 5800 5797 5794 5791
5831 5832 5835 5836 5837 5838 5839 5840 5840 5840 5841 5840 5840 5840 5839 5838 5837 5836 5835 5833 5832 5831 5830 5829 5827 5825 5823 5821 5820 5818 5816 5813 5811 5808 5805 5802 5800 5797 5794 5791 5788 5785 5782
5821 5823 5825 5826 5828 5829 5830 5830 5831 5831 5830 5830 5830 5830 5829 5828 5827 5826 5825 5824 5823 5822 5821 5819 5818 5816 5814 5813 5811 5809 5807 5804 5802 5799 5796 5793 5790 5788 5785 5782 5779 5776 5773
5811 5813 5814 5815 5817 5818 5819 5820 5820 5820 5820 5820 5820 5819 5818 5817 5816 5815 5814 5814 5813 5812 5811 5809 5808 5807 5805 5803 5801 5799 5797 5795 5792 5789 5786 5784 5781 5778 5776 5773 5770 5767 5764
5801 5802 5803 5804 5806 5807 5808 5809 5809 5809 5809 5809 5809 5808 5807 5806 5805 5804 5803 5803 5802 5801 5800 5799 5798 5797 5795 5793 5791 5789 5787 5785 5782 5779 5777 5774 5771 5769 5766 5763 5760 5757 5754
5789 5790 5792 5793 5794 5795 5796 5797 5797 5797 5797 5797 5797 5796 5796 5795 5794 5793 5792 5791 5791 5790 5789 5788 5787 5786 5784 5783 5781 5779 5776 5774 5771 5769 5767 5764 5761 5759 5756 5753 5750 5747 5744